Location: Horowhenua
(40.7500°S, 175.3333°E)
Time: 05:34:59
(UTC+00:00)

MOS 1 Rocket - Pass Details

Date: 28 January 2023
Orbit: 612 x 827 km, 97.5° (Epoch: 01 April)

Event Time Altitude Azimuth Distance (km) Brightness Sun altitude
Rises 13:48:12 0° 170° (S) 3,019 7.8 -28.4°
Reaches altitude 10° 13:50:29 10° 171° (S) 2,073 6.7 -28.3°
Enters shadow 13:53:57 52° 184° (S) 800 3.8 -28.1°
